sat.trackr.live / text

‹ back to catalog

HULIANWANG DIGUI-80

NORAD 65312 · 2025-187H

PAYLOAD ACTIVE UNKNOWN

§ Identity

Operator
Country
PRC
Launch date
2025-08-25
Launch site
WSC
Launch vehicle
Mass (kg)
RCS (m²)

External: N2YO · Heavens-Above · Gunter

§ Orbital elements

Epoch: 2026-05-25T03:22:42.463200Z

Period
108.33 min
Inclination
50.0037°
Eccentricity
0.0000677
Mean motion
13.29321946 rev/d
Perigee alt
1,148.8 km
Apogee alt
1,149.8 km
Semi-major
7,527.5 km
B*
5.4190e-5
RAAN
288.5598°
Arg perigee
80.3240°
Mean anomaly
279.7708°
Rev number
3,663

§ Raw data

HULIANWANG DIGUI-801 65312U 25187H   26145.14076925 -.00000099  00000+0  54190-4 0  99932 65312  50.0037 288.5598 0000677  80.3240 279.7708 13.29321946 36634

JSON: /api/v1/satellites/65312 · /tle

For live sub-satellite position, see the globe view (requires WebGL).

§ Visibility from observer

Set your observer location to see the next 7 days of passes ≥ 10°. The values pass through the URL so the page stays shareable.

No JS? Fill the form by hand. The geolocation button needs JavaScript.